Location: Haulchin
(50.3172°N, 3.4360°E)
Time: 20:02:05
(UTC+00:00)

Cosmos 2333 Rocket - Pass Details

Date: 11 August 2024
Orbit: 838 x 863 km, 70.8° (Epoch: 09 September)

Event Time Altitude Azimuth Distance (km) Brightness Sun altitude
Exits shadow 02:51:22 - 271° (W) 2,750 4.5 -13.6°
Reaches altitude 10° 02:52:16 10° 277° (W) 2,502 4.3 -13.5°
Maximum altitude 02:56:29 21° 325° (NW) 1,874 4.1 -13.0°
Drops below altitude 10° 03:00:44 10° 12° (NNE) 2,515 5.6 -12.5°
Sets 03:03:54 0° 29° (NNE) 3,455 6.9 -12.2°
